Location: New Plymouth
(39.0670°S, 174.0830°E)
Time: 17:06:55
(UTC+13:00)

Cosmos 2208 Rocket - Pass Details

Date: 24 January 2019
Orbit: 754 x 806 km, 74.0° (Epoch: 19 February)

Event Time Altitude Azimuth Distance (km) Brightness Sun altitude
Rises 21:56:58 0° 200° (SSW) 3,246 8.3 -12.5°
Reaches altitude 10° 21:59:21 10° 200° (SSW) 2,317 7.4 -12.8°
Maximum altitude 22:04:37 86° 287° (WNW) 778 4.0 -13.6°
Enters shadow 22:09:00 15° 15° (NNE) 1,977 5.7 -14.3°
